TimeMDT,TemperatureF,Dew PointF,Humidity,Sea Level PressureIn,VisibilityMPH,Wind Direction,Wind SpeedMPH,Gust SpeedMPH,PrecipitationIn,Events,Conditions,WindDirDegrees,DateUTC
12:15 AM,30.2,17.6,60,30.20,10.0,ESE,4.6,-,N/A,,Clear,120,2012-11-03 06:15:00
12:35 AM,30.2,19.4,64,30.20,10.0,East,5.8,-,N/A,,Clear,90,2012-11-03 06:35:00
12:55 AM,30.2,19.4,64,30.21,10.0,ESE,3.5,-,N/A,,Clear,120,2012-11-03 06:55:00
1:15 AM,30.2,19.4,64,30.21,10.0,Calm,Calm,-,N/A,,Clear,0,2012-11-03 07:15:00
1:35 AM,28.4,17.6,64,30.22,10.0,Calm,Calm,-,N/A,,Clear,0,2012-11-03 07:35:00
1:55 AM,28.4,19.4,69,30.21,10.0,Calm,Calm,-,N/A,,Clear,0,2012-11-03 07:55:00
2:15 AM,28.4,19.4,69,30.22,10.0,Calm,Calm,-,N/A,,Clear,0,2012-11-03 08:15:00
2:35 AM,26.6,17.6,69,30.22,10.0,Calm,Calm,-,N/A,,Clear,0,2012-11-03 08:35:00
2:55 AM,26.6,17.6,69,30.22,10.0,Calm,Calm,-,N/A,,Clear,0,2012-11-03 08:55:00
3:15 AM,26.6,17.6,69,30.22,10.0,Calm,Calm,-,N/A,,Clear,0,2012-11-03 09:15:00
3:35 AM,26.6,17.6,69,30.22,10.0,Calm,Calm,-,N/A,,Clear,0,2012-11-03 09:35:00
3:55 AM,26.6,17.6,69,30.22,10.0,ESE,3.5,-,N/A,,Clear,120,2012-11-03 09:55:00
4:15 AM,24.8,17.6,74,30.22,10.0,East,4.6,-,N/A,,Clear,100,2012-11-03 10:15:00
4:35 AM,24.8,17.6,74,30.22,10.0,SE,3.5,-,N/A,,Clear,140,2012-11-03 10:35:00
4:55 AM,26.6,17.6,69,30.23,10.0,Calm,Calm,-,N/A,,Clear,0,2012-11-03 10:55:00
5:15 AM,24.8,17.6,74,30.24,10.0,Calm,Calm,-,N/A,,Clear,0,2012-11-03 11:15:00
5:35 AM,23.0,17.6,80,30.25,10.0,East,3.5,-,N/A,,Clear,90,2012-11-03 11:35:00
5:55 AM,23.0,17.6,80,30.26,10.0,ESE,4.6,-,N/A,,Clear,120,2012-11-03 11:55:00
6:15 AM,23.0,17.6,80,30.26,10.0,East,3.5,-,N/A,,Clear,100,2012-11-03 12:15:00
6:35 AM,23.0,17.6,80,30.27,10.0,Calm,Calm,-,N/A,,Clear,0,2012-11-03 12:35:00
6:50 AM,23.0,17.6,80,30.27,10.0,Calm,Calm,-,N/A,,Clear,0,2012-11-03 12:50:00
7:50 AM,21.2,15.8,80,30.28,10.0,Calm,Calm,-,N/A,,Partly Cloudy,0,2012-11-03 13:50:00
8:50 AM,24.8,17.6,74,30.30,10.0,Calm,Calm,-,N/A,,Partly Cloudy,0,2012-11-03 14:50:00
9:55 AM,30.2,19.4,64,30.30,10.0,Calm,Calm,-,N/A,,Scattered Clouds,0,2012-11-03 15:55:00
10:50 AM,35.6,17.6,48,30.29,10.0,Calm,Calm,-,N/A,,Mostly Cloudy,0,2012-11-03 16:50:00
11:50 AM,42.8,19.4,39,30.27,10.0,Calm,Calm,-,N/A,,Mostly Cloudy,0,2012-11-03 17:50:00
12:53 PM,50.0,17.6,28,30.23,10.0,Calm,Calm,-,N/A,,Scattered Clouds,0,2012-11-03 18:53:00
1:47 PM,53.6,19.4,26,30.19,10.0,Calm,Calm,-,N/A,,Partly Cloudy,0,2012-11-03 19:47:00
2:50 PM,60.8,17.6,19,30.16,10.0,West,10.4,-,N/A,,Partly Cloudy,270,2012-11-03 20:50:00
3:50 PM,60.8,17.6,19,30.16,10.0,SSW,9.2,-,N/A,,Partly Cloudy,210,2012-11-03 21:50:00
4:50 PM,60.8,17.6,19,30.16,10.0,SW,13.8,-,N/A,,Partly Cloudy,220,2012-11-03 22:50:00
5:50 PM,57.2,17.6,21,30.18,10.0,WSW,6.9,-,N/A,,Partly Cloudy,240,2012-11-03 23:50:00
6:47 PM,53.6,15.8,22,30.20,10.0,Calm,Calm,-,N/A,,Partly Cloudy,0,2012-11-04 00:47:00
7:15 PM,53.6,15.8,22,30.20,10.0,West,3.5,-,N/A,,Clear,260,2012-11-04 01:15:00
7:35 PM,48.2,17.6,30,30.22,10.0,East,9.2,-,N/A,,Clear,80,2012-11-04 01:35:00
7:55 PM,44.6,17.6,34,30.22,10.0,East,5.8,-,N/A,,Clear,100,2012-11-04 01:55:00
8:15 PM,42.8,17.6,36,30.23,10.0,East,6.9,-,N/A,,Clear,90,2012-11-04 02:15:00
8:35 PM,42.8,17.6,36,30.24,10.0,ENE,8.1,-,N/A,,Clear,70,2012-11-04 02:35:00
8:55 PM,39.2,17.6,42,30.24,10.0,East,8.1,-,N/A,,Clear,90,2012-11-04 02:55:00
9:15 PM,39.2,17.6,42,30.25,10.0,East,10.4,-,N/A,,Clear,90,2012-11-04 03:15:00
9:35 PM,39.2,17.6,42,30.26,10.0,ESE,8.1,-,N/A,,Clear,110,2012-11-04 03:35:00
9:55 PM,37.4,17.6,45,30.27,10.0,Calm,Calm,-,N/A,,Clear,0,2012-11-04 03:55:00
10:15 PM,37.4,17.6,45,30.28,10.0,East,4.6,-,N/A,,Clear,100,2012-11-04 04:15:00
10:35 PM,35.6,17.6,48,30.29,10.0,East,3.5,-,N/A,,Clear,90,2012-11-04 04:35:00
10:55 PM,35.6,17.6,48,30.28,10.0,ENE,6.9,-,N/A,,Clear,70,2012-11-04 04:55:00
11:15 PM,35.6,17.6,48,30.28,10.0,East,4.6,-,N/A,,Clear,90,2012-11-04 05:15:00
11:35 PM,33.8,17.6,52,30.29,10.0,ENE,3.5,-,N/A,,Clear,70,2012-11-04 05:35:00
11:55 PM,33.8,17.6,52,30.29,10.0,Calm,Calm,-,N/A,,Clear,0,2012-11-04 05:55:00